Location: Kailua
(21.4020°N, 157.7390°W)
Time: 00:49:46
(UTC-10:00)

Daily predictions for brighter satellites

Satellite Brightness Start Highest point End
(mag) Time Altitude Azimuth Time Altitude Azimuth Time Altitude Azimuth
SL-16 R/B 4.4 02:10:47 24° NE 02:10:47 24° NE 02:14:43 10° NNE
Resurs 1-4 Rocket 4.5 02:22:14 10° NNE 02:23:37 18° NNE 02:23:37 18° NNE
Cosmos 2360 Rocket 4.1 02:49:29 23° N 02:49:29 23° N 02:51:33 10° N
ATLAS 2AS CENTAUR R/B 3.3 02:49:12 58° N 02:49:12 58° N 02:55:30 10° NNE
CZ-2D R/B 4.1 02:42:36 10° N 02:44:45 25° N 02:44:45 25° N
COSMOS 2428 4.2 02:51:42 33° NE 02:51:42 33° NE 02:54:54 10° NNE
Cosmos 2219 Rocket 3.9 02:51:55 27° ENE 02:51:55 27° ENE 02:55:22 10° NE
Cosmos 2263 Rocket 4.1 02:44:56 10° N 02:47:17 25° N 02:47:17 25° N
Cosmos 2237 Rocket 4.5 02:53:47 16° E 02:53:48 16° E 02:57:01 10° ENE
Cosmos 2333 Rocket 3.4 03:09:05 36° E 03:09:05 36° E 03:13:33 10° NE
Atlas Centaur 2 4.3 03:13:56 12° E 03:13:56 12° E 03:14:26 10° E
Cosmos 2154 Rocket 4.3 03:21:58 61° N 03:21:58 61° N 03:27:05 10° N
Meteor 2-5 Rocket 4.4 03:16:09 10° N 03:21:40 50° E 03:22:01 49° E
NOSS 0 Rocket 4.4 03:29:25 51° ESE 03:29:52 53° ESE 03:35:51 10° NNE
Cosmos 2341 Rocket 3.9 03:40:11 82° W 03:40:15 82° W 03:46:39 10° N
Cosmos 1340 Rocket 4.1 03:44:59 10° N 03:47:49 38° NE 03:47:49 38° NE
MOS 1-B 4.3 03:43:23 10° NNE 03:49:12 81° ESE 03:50:00 67° S
Intelsat 5-1 Rocket 2.6 03:51:01 64° NNW 03:51:29 68° N 04:01:15 10° E
SL-16 R/B 3.9 03:55:52 24° NW 03:55:52 24° NW 03:58:41 10° NW
Milstar 3 3.4 03:59:07 46° SW 04:00:05 48° SSW 04:10:58 10° SE
Abrixas rocket 4.4 04:02:56 22° N 04:02:56 22° N 04:04:28 10° NNE
Ariane H10 4.5 04:02:37 33° SSW 04:02:37 33° SSW 04:06:59 10° SE
Cosmos 1758 3.8 04:02:22 56° E 04:02:22 56° E 04:06:18 10° NNE
Cosmos 2218 Rocket 4.1 03:59:34 34° S 04:02:27 74° E 04:08:43 10° N
PSLV R/B 4.3 03:59:19 10° NNE 04:03:34 50° E 04:04:36 41° SE
Meteor 1-22 Rocket 4.5 04:04:18 48° WNW 04:04:18 48° WNW 04:09:35 10° N
Meteor 2-8 Rocket 4.5 03:58:34 10° NNW 04:04:30 53° W 04:04:36 53° W
ADEOS II 2.0 04:01:10 10° NNE 04:06:26 86° ESE 04:07:44 53° S
Cosmos 1953 2.7 04:09:17 54° SE 04:09:48 60° E 04:13:46 10° NNE
Delta 142 3.5 04:10:46 62° NNW 04:11:07 66° NNE 04:15:13 10° E
Skynet4D Del rocket 4.3 04:14:10 43° SW 04:16:36 71° SSE 04:24:23 10° ENE
H-2A R/B 3.0 04:02:56 10° WNW 04:17:40 55° N 04:21:05 10° E
Geosat 4.0 04:15:06 10° NNE 04:20:08 82° ESE 04:22:04 39° SSW
CZ-4B R/B 2.7 04:17:09 10° N 04:21:08 77° W 04:21:34 67° SW
BREEZE-M DEB 3.3 04:22:09 52° WSW 04:22:32 54° SW 04:31:44 10° SSE
Lacrosse 5 1.8 04:21:34 46° SSW 04:23:04 83° ESE 04:28:10 10° NE
RESURS DK-1 4.4 04:22:43 12° SSE 04:25:48 25° ESE 04:29:12 10° NE
Cosmos 1470 3.3 04:26:38 23° SSE 04:28:52 56° E 04:32:44 10° NNE
BREEZE-M DEB (TANK) 3.7 04:23:59 10° NW 04:31:40 61° NE 04:34:35 10° SE
USA 161 3.7 04:34:17 17° NW 04:34:17 17° NW 04:35:12 10° NNW
PSLV R/B 4.4 04:29:49 10° N 04:33:32 39° WNW 04:33:37 39° W
Cosmos 2219 Rocket 3.5 04:33:41 22° WNW 04:34:15 22° WNW 04:38:36 10° NNW
Cosmos 1980 4.2 04:34:00 33° WSW 04:35:35 40° WNW 04:40:53 10° N
Cosmos 2237 Rocket 2.6 04:35:38 33° WSW 04:37:24 42° WNW 04:42:42 10° N
In-Cosmos 22 4.0 04:35:12 10° NNW 04:40:24 60° W 04:45:31 10° S
SWIFT 2.9 04:42:54 35° SW 04:43:36 37° SSW 04:47:34 10° SE
ISS -1.8 04:42:06 10° NNW 04:45:04 31° NE 04:48:00 10° ESE
NOSS 3-4 (A) 3.7 04:43:18 26° SW 04:46:37 52° WNW 04:52:47 10° NNE
NOSS 3-4 (C) 3.7 04:43:21 26° SW 04:46:42 52° WNW 04:52:52 10° NNE
SeaSat 1 3.0 04:41:52 10° SE 04:46:42 60° ENE 04:51:33 10° NNW
PAYLOAD B 4.4 04:42:11 10° N 04:47:37 54° WNW 04:51:26 20° SW
Okean O Rocket 2.2 04:44:14 10° N 04:48:23 40° WNW 04:50:09 27° WSW
Palapa 6 Rocket 3.2 04:47:03 30° SW 04:48:52 51° SSE 04:52:43 10° E
Okean 3 Rocket 3.6 04:47:59 10° N 04:52:26 85° E 04:56:55 10° S
Cosmos 2333 Rocket 3.7 04:51:07 18° W 04:52:34 19° WNW 04:56:34 10° NNW
CZ-4B R/B 3.4 04:48:29 10° N 04:53:57 54° WNW 04:58:20 16° SSW
Cosmos 1844 Rocket 2.7 04:49:19 10° NNW 04:54:50 55° WSW 05:00:20 10° S
Tiangong 1 2.8 04:58:10 15° NW 04:58:56 17° NNW 05:00:49 10° N
Cosmos 1818 4.4 04:56:16 21° WSW 04:58:57 33° WNW 05:03:49 10° N
Atlas Centaur 2 1.9 04:56:34 22° W 04:59:16 60° NNW 05:04:30 10° ENE
IRS-1C Rocket 4.5 04:56:29 10° N 05:01:28 45° WNW 05:05:38 14° SW
Cosmos 1733 3.7 04:59:43 21° SW 05:01:48 39° W 05:05:27 10° NNW
NOSS 2-2 (E) 3.7 04:58:19 13° SSW 05:01:52 62° ESE 05:05:51 10° NNE
GENESIS II 4.1 04:59:12 10° NNW 05:03:05 90° ENE 05:06:55 10° SSE
ATLAS 2A CENTAUR R/B 2.6 05:01:52 10° WNW 05:04:16 24° N 05:05:56 10° ENE
Centaur Rocket 4.5 05:06:04 11° SSW 05:08:03 18° SSE 05:11:51 10° ESE
Cosmos 1766 Rocket 4.2 05:05:13 10° N 05:09:37 59° E 05:13:58 10° SSE
Cosmos 1076 Rocket 3.4 05:05:58 10° N 05:10:13 78° W 05:14:29 10° S
Landsat 4 4.2 05:13:42 10° S 05:17:11 38° W 05:20:40 10° NNW
BREEZE-M DEB (TANK) 2.9 05:10:27 10° NW 05:17:36 45° WSW 05:20:21 10° SSE
MTI 4.0 05:15:50 10° SSE 05:19:04 76° E 05:22:18 10° N
Cosmos 2278 Rocket 2.3 05:14:03 10° NNW 05:19:44 83° ENE 05:25:23 10° SSE
Cosmos 1674 3.3 05:17:59 10° NNW 05:21:32 36° W 05:25:06 10° SSW
ATLAS 3B R/B 2.5 05:15:35 10° NNW 05:22:03 65° WSW 05:28:23 10° SSE
Cosmos 968 Rocket 3.5 05:18:28 10° NNW 05:23:29 56° WSW 05:28:27 10° S
SL-16 R/B 2.7 05:18:32 10° SW 05:23:52 42° WNW 05:29:13 10° N
Cosmos 1727 Rocket 4.2 05:20:16 10° NNW 05:26:10 48° W 05:32:02 10° SSW
Cosmos 1356 3.9 05:24:39 10° N 05:28:08 66° E 05:31:36 10° SSE
GPS 2-05 Rocket1 3.1 05:25:59 10° SW 05:29:10 56° SSE 05:32:29 10° ENE
Feng Yun 1-1 Rocket 4.4 05:24:55 10° N 05:30:44 66° WNW 05:36:24 10° SSW
CZ-2C R/B 3.8 05:27:15 10° S 05:31:47 59° WSW 05:36:14 10° NNW
Okean-O 2.8 05:28:55 10° N 05:33:15 55° WNW 05:37:34 10° SSW
Cosmos 1535 Rocket 4.5 05:28:09 10° S 05:34:17 74° W 05:40:31 10° N
Cosmos 1242 Rocket 4.5 05:32:34 10° SSE 05:35:55 34° E 05:39:18 10° NNE
KORONAS-FOTON 4.5 05:33:06 10° NNW 05:36:43 36° W 05:40:20 10° SSW
SL-14 R/B 3.4 05:36:09 10° N 05:40:07 86° E 05:44:08 10° S
USA 238 DEB 3.9 05:37:17 10° NW 05:44:14 58° WSW 05:51:14 10° S
USA 238 3.9 05:37:23 10° NW 05:44:21 59° WSW 05:51:22 10° S
